Gunnison, CO

8:18 AM MDT on September 18, 2019 (GMT -0600)
Gunnison County

Weather History for KGUC - July, 2019

Change the Weather History Date:

Tuesday, July 30, 2019

  Actual Average Record
Temperature  
Mean Temperature 62 °F -  
Max Temperature 79 °F 76 °F 87 °F (2002)
Min Temperature 46 °F 45 °F 41 °F (2002)
Degree Days  
Heating Degree Days 2    
Growing Degree Days 12 (Base 50)    
Moisture  
Dew Point 45 °F    
Average Humidity 59    
Maximum Humidity 86    
Minimum Humidity 27    
Precipitation  
Precipitation 0.00 in - - ()
Sea Level Pressure  
Sea Level Pressure 30.18 in    
Wind  
Wind Speed 4 mph (North)    
Max Wind Speed 17 mph    
Max Gust Speed 24 mph    
Visibility 10 miles    
Events Rain    
Averages and records for this station are not official NWS values.
T = Trace of Precipitation, MM = Missing Value Source: NWS Daily Summary

Daily Weather History Graph

Daily Weather History Graph

Search for Another Location

Airport or City:

Astronomy

Jul. 30, 2019 Rise Set
Actual Time 6:07 AM MDT 8:20 PM MDT
Civil Twilight 5:37 AM MDT 8:49 PM MDT
Nautical Twilight 5:01 AM MDT 9:26 PM MDT
Astronomical Twilight 4:21 AM MDT 10:05 PM MDT
Moon 4:19 AM MDT (7/30) 7:26 PM MDT (7/30)
Length of Visible Light 15h 11m
Length of Day
14h 12m
Waning Crescent, 3% of the Moon is Illuminated
Jul 30
Waning Crescent
Jul 31
New
Aug 7
First Quarter
Aug 15
Full
Aug 23
Last Quarter

Hourly Weather History & Observations

Time (MDT) Temp. Dew Point Humidity Pressure Visibility Wind Dir Wind Speed Gust Speed Precip Events Conditions
12:56 AM 53.1 °F 45.0 °F 74% 30.12 in 10.0 mi Calm Calm - N/A   Clear
1:56 AM 55.0 °F 41.0 °F 59% 30.09 in 10.0 mi North 4.6 mph - N/A   Clear
2:56 AM 51.1 °F 39.9 °F 66% 30.10 in 10.0 mi NE 3.5 mph - N/A   Clear
3:56 AM 50.0 °F 41.0 °F 71% 30.12 in 10.0 mi NE 3.5 mph - N/A   Clear
4:56 AM 46.9 °F 43.0 °F 86% 30.14 in 10.0 mi NNE 4.6 mph - N/A   Clear
5:56 AM 46.0 °F 39.9 °F 79% 30.17 in 10.0 mi Calm Calm - N/A   Clear
6:56 AM 46.0 °F 41.0 °F 83% 30.20 in 10.0 mi Calm Calm - N/A   Clear
7:56 AM 52.0 °F 41.0 °F 66% 30.19 in 10.0 mi NE 4.6 mph - N/A   Clear
8:56 AM 59.0 °F 45.0 °F 60% 30.20 in 10.0 mi East 3.5 mph - N/A   Clear
9:56 AM 64.9 °F 44.1 °F 47% 30.17 in 10.0 mi Variable 3.5 mph - N/A   Clear
10:56 AM 73.0 °F 45.0 °F 37% 30.14 in 10.0 mi Variable 3.5 mph - N/A   Clear
11:56 AM 78.1 °F 46.9 °F 33% 30.11 in 10.0 mi NNE 5.8 mph - N/A   Clear
12:56 PM 79.0 °F 42.1 °F 27% 30.09 in 10.0 mi Variable 3.5 mph - N/A   Clear
1:56 PM 79.0 °F 48.0 °F 34% 30.07 in 10.0 mi WNW 9.2 mph - N/A   Clear
2:39 PM 73.4 °F 44.6 °F 36% 30.37 in 10.0 mi SSW 13.8 mph 24.2 mph N/A   Mostly Cloudy
2:56 PM 72.0 °F 43.0 °F 35% 30.17 in 10.0 mi WNW 8.1 mph 17.3 mph N/A   Overcast
3:56 PM 64.9 °F 52.0 °F 63% 30.24 in 10.0 mi WSW 6.9 mph - 0.00 in Rain Light Rain
4:56 PM 66.0 °F 51.1 °F 59% 30.26 in 10.0 mi WSW 5.8 mph - 0.00 in   Scattered Clouds
5:56 PM 64.0 °F 50.0 °F 60% 30.26 in 10.0 mi North 17.3 mph 21.9 mph N/A   Mostly Cloudy
6:56 PM 64.9 °F 51.1 °F 61% 30.26 in 10.0 mi North 8.1 mph - N/A   Scattered Clouds
8:56 PM 60.1 °F 48.0 °F 64% 30.26 in 10.0 mi North 5.8 mph - N/A   Scattered Clouds
9:56 PM 60.1 °F 48.0 °F 64% 30.25 in 10.0 mi North 5.8 mph - N/A   Mostly Cloudy
10:56 PM 60.1 °F 48.0 °F 64% 30.21 in 10.0 mi North 4.6 mph - N/A   Overcast
11:56 PM 55.9 °F 51.1 °F 84% 30.19 in 10.0 mi Calm Calm - N/A   Clear